DELTA 1 DEB, 42081

Orbit data source: Space-Track

DELTA 1 DEB, 42081 is space debris in SSO originally from a launch on Sun, 15 Dec 1968 UTC launched from the Air Force Western Test Range (AFWTR). Debris objects in space refer to the collection of defunct objects orbiting the Earth. Examples of debris include non-operational satellites, rocket bodies, and fragments generated from explosions, collisions, or faulty payload assembly.

Loading next visibility...
Identifier
42081, 1968-114H
Orbit
SSO
Country
Flag of USUS
Related business
Manufacturer
Aerojet
Mission
Spacecraft
Bus & Motor
Unknown
Mass
Unknown
Launch date (UTC)
1968-12-15 (58 years ago)
Launch vehicle
Unknown
Launch site
Air Force Western Test Range (AFWTR)
Object type
Payload
Rocket body
Debris
Shape & HBR
Unknown shape, 0.089 m
Radar Cross Section
Medium (>0.1 m² and <1 m²)

Expand to show TLE details & history
Last TLE update: 15 hours ago

TLE from 15 hours ago
0 DELTA 1 DEB
1 42081U 68114H   26266.58182064  .00000035  00000-0  62044-3 0  9998
2 42081 101.7065 208.0856 0115968 164.4443 196.0227 12.31828813514882
Epoch: 2026-09-23T13:57Z
TLE epoch observation values (Epoch: 2026-09-23T13:57:49.303Z)
Latitude
-0.00004°
Longitude
-3.8007°
Altitude
1,632.35 km
Speed
7.016 km/s
True Right ascension
13h 52m 20s
True Declination
0° 00' 00"
Sunlit
Object was in daylight at epoch
Visualization orbit readout
Latitude
Unknown
Longitude
Unknown
Altitude
Unknown
Speed
Unknown
Apparent Right ascension
Unknown
Apparent Declination
Unknown
Sunlit
N/A
Visualization observer readout
Local Sidereal Time
22:29:49
Azimuth
Unknown
Elevation
Unknown
Doppler factor
Unknown
Orbital elements
Apogee altitude
1,630.814 km
Perigee altitude
1,447.187 km
Semi-major axis
7,917.138 km
Eccentricity
0.0116
Inclination
101.7065°
RAAN
208.0856°
Arg. of periapsis
164.4443°
True anomaly
195.66095°
Mean anomaly
196.0227°
Eccentric anomaly
195.84132°
Mean motion
3.08099 °/min
Orbital period
116.85 mins
BSTAR
0.00062044
Loading maneuver chart data...
Computing Atmospheric mass density...
Loading historical data...
Loading historical data...
Loading historical data...
Loading historical data...
Loading historical data...
Loading historical data...
Loading historical data...

Documentation

Showing up to 5 results
|